TimeMST,TemperatureF,Dew PointF,Humidity,Sea Level PressureIn,VisibilityMPH,Wind Direction,Wind SpeedMPH,Gust SpeedMPH,PrecipitationIn,Events,Conditions,WindDirDegrees,DateUTC
12:53 AM,-7.1,-13.0,75,30.30,10.0,WSW,8.1,-,N/A,,Clear,240,2013-01-15 07:53:00
1:53 AM,-6.0,-13.0,72,30.28,10.0,WSW,4.6,-,N/A,,Clear,240,2013-01-15 08:53:00
2:53 AM,-8.0,-15.0,71,30.28,10.0,WSW,9.2,-,N/A,,Clear,250,2013-01-15 09:53:00
3:53 AM,-8.0,-14.1,75,30.28,10.0,WSW,11.5,-,N/A,,Clear,250,2013-01-15 10:53:00
4:53 AM,-15.0,-20.0,78,30.34,10.0,WSW,8.1,-,N/A,,Clear,250,2013-01-15 11:53:00
5:53 AM,-13.0,-18.9,75,30.34,10.0,WSW,8.1,-,N/A,,Clear,250,2013-01-15 12:53:00
6:53 AM,-9.9,-15.0,78,30.33,10.0,West,8.1,-,N/A,,Clear,270,2013-01-15 13:53:00
7:53 AM,3.0,-4.0,73,30.28,10.0,SW,6.9,-,N/A,,Clear,220,2013-01-15 14:53:00
8:53 AM,10.9,3.0,70,30.28,10.0,West,9.2,-,N/A,,Overcast,270,2013-01-15 15:53:00
9:53 AM,19.9,6.1,55,30.25,10.0,West,12.7,-,N/A,,Overcast,270,2013-01-15 16:53:00
10:53 AM,23.0,12.0,63,30.21,10.0,West,16.1,-,N/A,,Overcast,270,2013-01-15 17:53:00
11:53 AM,26.1,12.9,58,30.17,10.0,West,20.7,-,N/A,,Overcast,280,2013-01-15 18:53:00
12:53 PM,27.0,15.1,61,30.16,10.0,WNW,20.7,27.6,N/A,,Overcast,290,2013-01-15 19:53:00
1:53 PM,28.0,18.0,66,30.15,10.0,West,18.4,-,N/A,,Overcast,270,2013-01-15 20:53:00
2:53 PM,30.0,19.0,64,30.15,10.0,WNW,19.6,25.3,N/A,,Mostly Cloudy,290,2013-01-15 21:53:00
3:53 PM,28.0,19.0,69,30.17,10.0,West,13.8,-,N/A,,Overcast,270,2013-01-15 22:53:00
4:53 PM,27.0,19.0,72,30.20,10.0,West,13.8,-,N/A,,Overcast,260,2013-01-15 23:53:00
5:53 PM,28.0,24.1,85,30.18,10.0,West,12.7,-,0.00,,Overcast,280,2013-01-16 00:53:00
6:53 PM,28.9,24.1,82,30.18,10.0,WNW,13.8,-,N/A,,Overcast,290,2013-01-16 01:53:00
7:53 PM,27.0,21.0,78,30.15,10.0,West,15.0,-,0.00,,Overcast,280,2013-01-16 02:53:00
8:53 PM,28.0,24.1,85,30.12,8.0,West,17.3,-,0.00,Snow,Light Snow,280,2013-01-16 03:53:00
9:53 PM,28.0,21.0,75,30.09,10.0,West,21.9,-,0.00,,Overcast,280,2013-01-16 04:53:00
10:53 PM,28.9,23.0,78,30.06,10.0,West,20.7,-,N/A,,Mostly Cloudy,280,2013-01-16 05:53:00
11:53 PM,26.1,19.0,75,30.06,10.0,WNW,18.4,-,N/A,,Partly Cloudy,290,2013-01-16 06:53:00